Regional Weather Roundup
Issued by NWS Charleston, SC

Current Version | Previous Version | Text Only | Print | Product List | Glossary Off
Versions: 1 2 3 4 5 6 7 8 9 10 11 12 13 14 15 16 17 18 19 20 21 22 23 24 25 26 27 28 29 30 31 32 33 34 35 36 37 38 39 40 41 42 43 44 45 46 47 48 49 50
902 ASUS42 KCHS 020028 RWRCHS REGIONAL WEATHER ROUNDUP NATIONAL WEATHER SERVICE CHARLESTON SC 800 PM EDT SUN MAY 01 2016 NOTE: "FAIR" INDICATES FEW OR NO CLOUDS BELOW 12,000 FEET WITH NO SIGNIFICANT WEATHER AND/OR OBSTRUCTIONS TO VISIBILITY. NOT ALL STATIONS ARE QUALITY CONTROLLED. USE DATA WITH CAUTION... ESPECIALLY DEWPOINT OBSERVATIONS. SCZ027-030-031-034>040-042>050-020100- ...SOUTHEAST SOUTH CAROLINA... CITY SKY/WX TMP DP RH WIND PRES REMARKS N CHARLESTON CLOUDY 75 70 84 S9 30.04F 6HR MIN TEMP: 75; 6HR MAX TEMP: 80; 6HR PCP: TRACE; WATERFRONT PRK N/A 75 72 90 S7 30.03F MOUNT PLEASANT FAIR 73 70 88 CALM 30.06S JOHNS ISLAND FAIR 75 72 88 S7 30.06F PINOPOLIS N/A 72 68 88 VRB3 29.99R MONCKS CORNER FAIR 66 64 94 E3 30.05F SUMMERVILLE FAIR 70 70 100 CALM 30.05F BEAUFORT MCAS LGT RAIN 73 69 87 NE3 30.05F 6HR MIN TEMP: 73; 6HR MAX TEMP: 86; 6HR PCP: 0.03; BEAUFORT ARPT FAIR 75 72 88 SE5 30.05S HILTON HEAD IS MOCLDY 77 73 88 S6 30.07S WALTERBORO MOCLDY 72 72 100 S3 30.05R ALLENDALE FAIR 72 68 88 SE3 30.03R ...SOUTHERN MIDLANDS AND PEE DEE... CITY SKY/WX TMP DP RH WIND PRES REMARKS GEORGETOWN FAIR 66 64 94 S5 30.08R KINGSTREE FAIR 68 64 88 SE7 30.04S ORANGEBURG CLOUDY 73 67 81 SE3 30.04R 6HR MIN TEMP: 70; 6HR MAX TEMP: 77; 6HR PCP: 0.10; BARNWELL FAIR 73 72 94 S6 30.03S AIKEN FAIR 72 66 83 S9 30.06R MANNING NOT AVBL COLUMBIA CLOUDY 76 66 71 SE7 30.02R 6HR MIN TEMP: 76; 6HR MAX TEMP: 87; 6HR PCP: TRACE; SUMTER CLOUDY 72 68 88 SE7 30.00F 6HR MIN TEMP: 69; 6HR MAX TEMP: 76; 6HR PCP: 0.61; FLORENCE CLOUDY 70 66 87 S8 30.02F 6HR MIN TEMP: 66; 6HR MAX TEMP: 73; 6HR PCP: TRACE; MYRTLE BEACH CLOUDY 68 61 77 SW8 30.07S N MYRTLE BEACH CLOUDY 70 67 90 SW10 30.04S 6HR MIN TEMP: 69; 6HR MAX TEMP: 75; 6HR PCP: 0.70; $$ GAZ063-065-086>088-099>101-113>116-118-119-134>141-150-020100- ...SOUTHEAST GEORGIA... CITY SKY/WX TMP DP RH WIND PRES REMARKS SAVANNAH ARPT TSTM 72 65 78 CALM 30.06S 6HR MIN TEMP: 72; 6HR MAX TEMP: 86; 6HR PCP: TRACE; HUNTER AAF CLOUDY 75 68 79 CALM 30.04S 6HR MIN TEMP: 74; 6HR MAX TEMP: 84; 6HR PCP: 0.04; FORT STEWART LGT RAIN 70 64 83 CALM 30.05F 6HR MIN TEMP: 69; 6HR MAX TEMP: 87; 6HR PCP: 0.04; STATESBORO NOT AVBL SYLVANIA NOT AVBL CLAXTON RAIN 69 69 99 E5 30.06S ...CSRA...CENTRAL AND FAR SOUTHEAST GEORGIA... CITY SKY/WX TMP DP RH WIND PRES REMARKS THOMSON NOT AVBL AUGUSTA-BUSH CLOUDY 77 66 68 S10 30.01R 6HR MIN TEMP: 77; 6HR MAX TEMP: 88; AUGUSTA-DANIEL MOCLDY 78 69 73 SE3 30.02R SWAINSBORO FAIR 73 66 78 SE10 30.04R VIDALIA NOT AVBL EASTMAN NOT AVBL HAZLEHURST FAIR 74 70 87 SE6 30.02R ALMA RAIN 71 69 93 VRB5 30.05R FOG 6HR MIN TEMP: 74; 6HR MAX TEMP: 89; WAYCROSS PTCLDY 76 72 86 CALM 30.02R JESUP CLOUDY 79 72 78 NE9G17 30.05R BAXLEY FAIR 72 70 94 E7 30.04R BRUNSWICK CLOUDY 81 73 78 E7 30.04R SAINT SIMONS MOCLDY 76 72 87 SE9 30.03S 6HR MIN TEMP: 76; 6HR MAX TEMP: 82; $$ SCZ027-028-034-036>038-045-046-048>050-GAZ119-141-020100- ...LAKE AND SUPPLEMENTAL COASTAL OBSERVATIONS... STATION/POSITION TIME TEMP WIND PRES WAVE SWELL AIR SEA DIR/SP/G HT/PER HT/PER/DIR (UTC) (F) (DEG/KT/KT) (MB) (FT/S) (FT/S/D) WINYAH BAY 2300 68 100/ 4 1017.0F LAKE MURRAY 2300 76 150/ 8/ 13 1015.2R ACE BASIN NERRS 2345 75 CALM 1018.0S FORT PULASKI 0000 74 N/A SAPELO ISLAND 0000 76 120/ 5 1017.0S $$ ANZ835-935-AMZ111-154-330-350-352-354-370-450-454-472-020100- ...C-MAN AND BUOY OBSERVATIONS... STATION/POSITION TIME TEMP WIND PRES WAVE SWELL AIR SEA DIR/SP/G HT/PER HT/PER/DIR (UTC) (F) (DEG/KT/KT) (MB) (FT/S) (FT/S/D) BUOY 41004 2350 75 73 180/ 4/ 4 1018.2R 4/ 7 3/ 7 BUOY 41008 NOT AVBL FOLLY BEACH CMAN 0000 74 170/ 7/ 8 1018.0F CAPERS NEARSHORE 2308 73 72 230/ 2/ 4 1018.0R FRIPP NEARSHORE 0008 74 74 160/ 6/ 8 1017.3S STATION/POSITION TIME TEMP WIND PRES WAVE SWELL AIR SEA DIR/SP/G HT/PER HT/PER/DIR (UTC) (F) (DEG/KT/KT) (MB) (FT/S) (FT/S/D) 5E ST. MARYS GA 2321 75 N/A 3/ 5 FRYING PAN BUOY 0000 74 72 190/ 6/ 8 1018.1R BUOY 41025 2350 74 74 180/ 17/ 21 1016.7F 4/10 3/ 90/10 CAPE LOOKOUT NC 0000 70 190/ 10/ 12 1017.0F BUOY 41002 2350 73 74 130/ 8/ 10 1020.5R 4/10 5/ 20/10 BUOY 41010 2320 77 78 120/ 10/ 12 1017.8R ST AUGUSTINE FL 0000 74 74 130/ 11/ 12 1017.4R $$

USA.gov is the U.S. government's official web portal to all federal, state and local government web resources and services.